Meteo Giornale » Osservazioni meteo Gran Bretagna » Newcastle

ore: 15:50 - Osservazioni Meteo Newcastle
Lat. 55° 2' N Lon. 1° 42' W Alt. 81 metri s.l.m.

nuvoloso

19 °C

Nuvoloso

Temp. 24 Ore

10 °C

20 °C

Ovest

29.6 Km/h

Dew point 12 °C

Umidità 63 %

Visibilità  10 Km

Il sole sorge alle ore 06:13

Il sole tramonta alle ore 20:00

Data e Ora Cielo e Fenomeni T °C DP °C Um. % Pres. hPa Vis. km Vento km/h
Oggi h: 15:50 nuvoloso Nuvoloso 19 12 63 1014 10 O 29.6
Oggi h: 15:20 molto_nuvoloso Molto Nuvoloso 19 12 63 1014 10 O/SO 25.9
Oggi h: 14:50 nuvoloso Nuvoloso 19 12 63 1014 10 O/SO 29.6
Oggi h: 14:20 molto_nuvoloso Molto Nuvoloso 19 11 59 1014 10 O/SO 27.8
Oggi h: 13:50 molto_nuvoloso Molto Nuvoloso 19 11 59 1014 10 O/SO 25.9
Oggi h: 13:20 molto_nuvoloso Molto Nuvoloso 18 12 67 1014 10 O/SO 29.6
Oggi h: 12:50 molto_nuvoloso Molto Nuvoloso 19 12 63 1014 10 O/SO 27.8
Oggi h: 12:20 molto_nuvoloso Molto Nuvoloso 19 11 59 1014 10 O/SO 25.9
Oggi h: 11:50 poco_nuvoloso Poco Nuvoloso 18 11 63 1014 10 O/SO 22.2
Oggi h: 11:20 nuvoloso Nuvoloso 18 12 67 1014 10 O/SO 22.2
Oggi h: 10:50 poco_nuvoloso Poco Nuvoloso 19 12 63 1014 10 O 35.2
Oggi h: 10:20 poco_nuvoloso Poco Nuvoloso 18 11 63 1014 10 O/SO 31.5
Oggi h: 09:50 poco_nuvoloso Poco Nuvoloso 18 12 67 1014 10 O/SO 27.8
Oggi h: 09:20 poco_nuvoloso Poco Nuvoloso 17 11 67 1014 10 SO 18.5
Oggi h: 08:50 poco_nuvoloso Poco Nuvoloso 17 12 72 1014 10 SO 11.1
Oggi h: 08:20 poco_nuvoloso Poco Nuvoloso 16 12 77 1014 10 S/SO 7.4
Oggi h: 07:50 poco_nuvoloso Poco Nuvoloso 14 11 82 1015 10 SO 11.1
Oggi h: 07:20 poco_nuvoloso Poco Nuvoloso 13 11 87 1015 10 S/SO 7.4
Oggi h: 06:50 poco_nuvoloso Poco Nuvoloso 12 10 87 1015 10 N 5.5
Oggi h: 06:20 sereno Sereno 11 10 93 1015 10 SO 9.3
Oggi h: 05:50 sereno Sereno 11 9 87 1015 10 N 3.7
Oggi h: 05:20 sereno Sereno 11 9 87 1015 10 SO 7.4
Oggi h: 04:50 poco_nuvoloso Poco Nuvoloso 11 9 87 1015 10 N 3.7
Oggi h: 04:20 molto_nuvoloso Molto Nuvoloso 11 10 93 1015 10 N 5.5
Oggi h: 03:50 poco_nuvoloso Poco Nuvoloso 11 10 93 1015 10 N 3.7
Oggi h: 03:20 sereno Sereno 11 10 93 1015 10 O 9.3
Oggi h: 02:50 sereno Sereno 10 9 93 1015 10 N 1.8
Oggi h: 02:20 sereno Sereno 11 9 87 1015 10 O/NO 7.4
Oggi h: 01:50 sereno Sereno 11 9 87 1015 10 O/NO 11.1
Oggi h: 01:20 sereno Sereno 11 9 87 1015 10 O 13
Oggi h: 00:50 sereno Sereno 12 9 81 1015 10 O 14.8
Oggi h: 00:20 sereno Sereno 12 9 81 1015 10 O 20.3
Ieri h: 23:50 sereno Sereno 13 9 76 1015 10 O 18.5
Ieri h: 23:20 sereno Sereno 13 10 81 1015 10 O 18.5
Ieri h: 22:50 sereno Sereno 14 10 76 1015 10 O 22.2
Ieri h: 22:20 sereno Sereno 14 10 76 1014 10 O 24
Ieri h: 21:50 sereno Sereno 14 10 76 1014 10 O 16.7
Ieri h: 21:20 sereno Sereno 14 10 76 1014 10 O 20.3
Ieri h: 20:50 sereno Sereno 14 10 76 1013 10 O 18.5
Ieri h: 19:50 sereno Sereno 15 10 72 1012 10 O 25.9
Ieri h: 19:20 sereno Sereno 16 11 72 1012 10 O 25.9
Ieri h: 18:50 poco_nuvoloso Poco Nuvoloso 17 11 67 1012 10 O 27.8
Ieri h: 18:20 poco_nuvoloso Poco Nuvoloso 18 11 63 1011 10 O 29.6
Ieri h: 17:50 poco_nuvoloso Poco Nuvoloso 19 12 63 1011 10 O 27.8
Ieri h: 17:20 poco_nuvoloso Poco Nuvoloso 20 13 64 1010 10 O 27.8
Ieri h: 16:50 poco_nuvoloso Poco Nuvoloso 20 12 59 1010 10 O 31.5